Flag for Germany Weather past 2 weeks in Rostock, Mecklenburg-Western Pomerania, Germany

Now
51 °F

Scattered clouds.


Feels Like: 51 °F
Forecast: 49 / 57 °F
Wind: 3 mph from Northwest

Location: Rostock-Warnemuende

Current Time: May 24, 2015 at 11:43:03 AM

Latest Report: May 24, 2015 at 11:00 AM


Visibility: 16 mi

Pressure: 30.15 "Hg

Humidity: 71%

Dew point: 42 °F

Location of RostockLocation

Historic Weather in Rostock — Graph

°F

Rostock temperature yesterday

Maximum temperature yesterday: 58 °F (at 12:00 AM)
Minimum temperature yesterday: 50 °F (at 10:00 AM)
Average temperature yesterday: 54 °F

Past Weeks' High & Low Weather Summary

 TemperatureHumidityPressure
High74 °F (May 12, 2:00 PM)95% (May 23, 8:00 AM)30.35 "Hg (May 23, 8:00 AM)
Low44 °F (May 21, 5:00 AM)42% (May 20, 2:00 PM)29.56 "Hg (May 19, 5:00 AM)
Average53 °F74%30.02 "Hg
* Reported May 9 10:00 AM — May 24 10:00 AM, Rostock, Weather by CustomWeather, © 2015

Note: Actual official high and low records may vary slightly from our data, if they occured in-between our weather recording intervals... More about our weather records

Advertising

Rostock weather history for previous 24 hours

 ConditionsComfort  
Time TempWeatherWind HumidityBarometerVisibility
10:00 AM
Sun, May 24
51 °FPartly sunny.3 mph71%30.16 "Hg19 mi
9:00 AM51 °FOvercast.5 mph74%30.15 "Hg17 mi
8:00 AM50 °FOvercast.5 mph74%30.14 "Hg16 mi
7:00 AM50 °FOvercast.5 mph78%30.14 "Hg17 mi
6:00 AM50 °FOvercast.5 mph80%30.13 "Hg25 mi
5:00 AM50 °FPassing clouds.6 mph79%30.13 "Hg28 mi
4:00 AM51 °FPassing clouds.7 mph77%30.13 "Hg28 mi
3:00 AM52 °FPassing clouds.8 mph78%30.14 "Hg28 mi
2:00 AM52 °FPassing clouds.7 mph76%30.14 "Hg28 mi
1:00 AM52 °FPassing clouds.7 mph80%30.14 "Hg31 mi
12:00 AM53 °FPassing clouds.5 mph81%30.14 "Hg31 mi
11:00 PM
Sat, May 23
53 °FPassing clouds.6 mph79%30.14 "Hg28 mi
10:00 PM53 °FPassing clouds.7 mph79%30.14 "Hg28 mi
9:00 PM54 °FScattered clouds.7 mph76%30.13 "Hg25 mi
8:00 PM54 °FScattered clouds.6 mph71%30.12 "Hg25 mi
7:00 PM55 °FScattered clouds.6 mph68%30.13 "Hg25 mi
6:00 PM55 °FPartly sunny.6 mph66%30.13 "Hg25 mi
5:00 PM54 °FScattered clouds.6 mph65%30.14 "Hg25 mi
4:00 PM55 °FScattered clouds.7 mph66%30.14 "Hg28 mi
3:00 PM54 °FPassing clouds.7 mph69%30.14 "Hg28 mi
2:00 PM53 °FScattered clouds.6 mph74%30.14 "Hg28 mi
1:00 PM53 °FPartly sunny.7 mph79%30.14 "Hg28 mi
12:00 PM51 °FLow clouds.3 mph85%30.15 "Hg25 mi
11:00 AM51 °FLight rain. Overcast.6 mph90%30.15 "Hg7 mi
Weather by CustomWeather, © 2015

See weather overviewHow to use our weather pages